This is the latest recevied weather packets stored in our database for station/object EA4GRN-10. If no packets are shown the sender has not sent any weather packets the latest 10 day(s).
| Time | Temp. | Humidity | Pressure | Rain* | Wind** | Luminosity | Snow |
|---|---|---|---|---|---|---|---|
| 1787574631 | 31.67° C | 41% | 1026.9 hPa | - | - | - | - |
| 1787573731 | 31.67° C | 40% | 1026.9 hPa | - | - | - | - |
| 1787572831 | 31.67° C | 43% | 1027.2 hPa | - | - | - | - |
| 1787571930 | 31.67° C | 41% | 1027.5 hPa | - | - | - | - |
| 1787571030 | 31.67° C | 42% | 1027.6 hPa | - | - | - | - |
| 1787570130 | 31.67° C | 41% | 1027.6 hPa | - | - | - | - |
| 1787569230 | 31.11° C | 42% | 1027.6 hPa | - | - | - | - |
| 1787568330 | 31.11° C | 42% | 1027.8 hPa | - | - | - | - |
| 1787567430 | 31.11° C | 43% | 1028 hPa | - | - | - | - |
| 1787566529 | 31.11° C | 43% | 1027.9 hPa | - | - | - | - |
| 1787565629 | 31.11° C | 43% | 1027.8 hPa | - | - | - | - |
| 1787564733 | 31.11° C | 43% | 1027.9 hPa | - | - | - | - |
| 1787563833 | 31.11° C | 43% | 1027.9 hPa | - | - | - | - |
| 1787562933 | 31.11° C | 44% | 1028 hPa | - | - | - | - |
| 1787562033 | 30.56° C | 44% | 1027.9 hPa | - | - | - | - |
| 1787561132 | 30.56° C | 44% | 1028.1 hPa | - | - | - | - |
| 1787560232 | 31.67° C | 41% | 1028.1 hPa | - | - | - | - |
| 1787559332 | 30.56° C | 42% | 1028.4 hPa | - | - | - | - |
| 1787558432 | 30.56° C | 42% | 1028.3 hPa | - | - | - | - |
| 1787557532 | 30° C | 42% | 1028.1 hPa | - | - | - | - |
| 1787556631 | 30° C | 42% | 1028.1 hPa | - | - | - | - |
| 1787555731 | 30° C | 42% | 1028 hPa | - | - | - | - |
| 1787554831 | 30° C | 41% | 1028.1 hPa | - | - | - | - |
| 1787553931 | 30.56° C | 41% | 1028 hPa | - | - | - | - |
| 1787553031 | 30.56° C | 48% | 1027.9 hPa | - | - | - | - |
* Rain since midnight (hover to see other rain measurements)
** Current wind speed in m/s (hover to see current wind gust speed)